默认 日期 大小 文件数 浏览量 最新下载 xml
physical磁力链接相关资源由用户搜索指令自动获取,结果来源于网络,本站不存储任何资料,亦不承担任何责任,请于24小时内删除,搜索到3739个磁力,用时4ms。
    {"Meta.Physical.part01.rar": 1073741824, "Meta.Physical.part02.rar": 1073741824, "Meta.Physical.part03.rar": 1073741824, "Meta.Physical.part04.rar": 1073741824, "Meta.Physical.part05.rar": 549724930}
创建时间: 2022-05-11 19:45:40 大小:4.51 GB 文件数量:5 热度:4 最近下载:2025-03-02 02:18:01
    ... ).mp3": 15401323, "11 H2 - Get Physical Track Vol. 2, Mixed By ...
创建时间: 2022-05-12 09:05:50 大小:302.08 MB 文件数量:11 热度:3 最近下载:2025-01-19 00:48:08
    {"cover.jpg": 250461, "05 - Call Me.mp3": 9572294, "02 - Grinding.mp3": 7733276, "06 - Hands Up.mp3": 9591104, "04 - Shake Dat.mp3": 7586992, "08 - Bonus Track.mp3": 11433266, "01 - Take Your Time.mp3": 10603623, "03 - The Perfect One.mp3": 11432229, "07 - ...
创建时间: 2022-05-15 09:19:29 大小:75.34 MB 文件数量:9 热度:5 最近下载:2025-03-04 18:28:03
    ... , Jean Hollywood & Dee Williams - The Physical Final Exam (04-05-2022 ... , Jean Hollywood & Dee Williams - The Physical Final Exam (04-05-2022 ...
创建时间: 2022-05-16 12:54:08 大小:839.62 MB 文件数量:8 热度:34 最近下载:2025-09-17 14:29:07
    {"Geography Science.iso": 629020672, "cdrom-physical-geography_dc.xml": 1168, "cdrom-physical-geography_marc.xml": 2955, "cdrom-physical-geography_meta.mrc": 1041, "cdrom-physical-geography_meta.xml": 1227, "cdrom-physical-geography_meta.sqlite": 9216}
创建时间: 2022-05-19 11:55:13 大小:599.9 MB 文件数量:6 热度:3 最近下载:2025-01-07 18:22:03
    {"01.jpg": 296006, "02.jpg": 228914, "03.jpg": 223498, "04.jpg": 306207, "05.jpg": 434740, "06.jpg": 334309, "07.jpg": 501549, "08.jpg": 398931, "09.jpg": 398651, "10.jpg": 432957, "11.jpg": 434657, "12.jpg": 410342, "13.jpg": 400569, "14.jpg": 370982, "15 ...
创建时间: 2022-05-20 14:18:56 大小:9.09 MB 文件数量:28 热度:7 最近下载:2025-03-16 19:30:02
    {"~Get Your Files Here !": {"Bonus Resources.txt": 386, "AdvancedStatisticsforPhysicalandOccupationalTherapy.pdf": 15518834}, "Get Bonus Downloads Here.url": 182}
创建时间: 2022-05-20 17:52:28 大小:14.8 MB 文件数量:3 热度:6 最近下载:2025-02-06 21:19:14
    {"folder.jpg": 242936, "06. Kashmir.flac": 212947632, "02. The Rover.flac": 139449700, "15. Sick Again.flac": 119716103, "01. Custard Pie.flac": 104925029, "08. Bron-Yr-Aur.flac": 47103174, "07. In The Light.flac": 208813063, "11. Night Flight.flac": ...
创建时间: 2022-05-20 22:58:05 大小:2.78 GB 文件数量:23 热度:4 最近下载:2025-01-22 10:58:11
    {"Burmistrov S. Physical Kinetics. Classical and Quantum...2022.pdf": 1983166}
创建时间: 2022-05-21 15:39:12 大小:1.89 MB 文件数量:1 热度:6 最近下载:2025-02-15 07:16:02
    {"01.jpg": 296006, "02.jpg": 228914, "03.jpg": 223498, "04.jpg": 306207, "05.jpg": 434740, "06.jpg": 333468, "07.jpg": 501549, "08.jpg": 398802, "09.jpg": 398651, "10.jpg": 432957, "11.jpg": 434657, "12.jpg": 410342, "13.jpg": 397618, "14.jpg": 370982, "15 ...
创建时间: 2022-05-21 15:40:33 大小:9.09 MB 文件数量:28 热度:6 最近下载:2025-01-03 09:09:02
    {"Ben Hoo - Ibiza 2017-3017": {"cover.jpg": 230335, "fooCDtect.log.txt": 2079, "03-Clara Brea - 707Minor7.flac": 29054099, "08-Nima Gorji - Look Back.flac": 62141767, "13-Nima Gorji - Delusions.flac": 45521335, "09-Alex Kennon - Doctor Beat.flac": 41059491 ...
创建时间: 2022-05-22 14:48:15 大小:1.93 GB 文件数量:37 热度:3 最近下载:2025-01-09 15:59:17
    {"Bonus_2_Imperfections_4K": {"stains_imperfections_10_4K": {"stains_imperfections_10.jpg": 54995, "stains_imperfections_10_ao.jpg": 8277340, "stains_imperfections_10_height.jpg": 4199564, "stains_imperfections_10_normal.jpg": 1955063, " ...
创建时间: 2022-05-22 16:42:22 大小:4.24 GB 文件数量:527 热度:10 最近下载:2025-09-18 23:55:02
    {"The Deconstruction of the Physical Mind P1.m4a": 61667601, "The Deconstruction of the Physical Mind P2.m4a": 64092294, "The Deconstruction of the Physical Mind P3.m4a": 9943056}
创建时间: 2022-05-23 11:57:27 大小:129.42 MB 文件数量:3 热度:5 最近下载:2025-03-27 20:51:02
    {"Servos J. Physical chemistry from Ostwald to Pauling...1990.pdf": 60213683}
创建时间: 2022-05-26 12:43:10 大小:57.42 MB 文件数量:1 热度:4 最近下载:2025-01-26 19:07:06
    {"Flanders H. Differential Forms with Applications..Physical..1972.pdf": 7646082}
创建时间: 2022-05-26 17:28:41 大小:7.29 MB 文件数量:1 热度:5 最近下载:2025-02-25 03:44:02
    {"The Deconstruction of the Physical Mind P1.mp4": 1360920890, "The Deconstruction of the Physical Mind P2.mp4": 1130437257, "The Deconstruction of the Physical Mind P3.mp4": 263704631}
创建时间: 2022-05-26 20:01:47 大小:2.57 GB 文件数量:3 热度:4 最近下载:2025-03-27 16:56:03
    ... , Jean Hollywood & Dee Williams - The Physical Final Exam (04-05-2022 ... , Jean Hollywood & Dee Williams - The Physical Final Exam (04-05-2022 ... Hollywood and Dee Williams The Physical Final Exam.scr": 738535643}
创建时间: 2022-05-27 08:13:23 大小:1.51 GB 文件数量:9 热度:30 最近下载:2025-10-11 07:50:01
    {"How and When Heavens Gate (The Door to the Physical Kingdom Level Above Human) May Be Entered An Anthology of Our Materials.pdf": 17801632}
创建时间: 2022-05-28 18:44:12 大小:16.98 MB 文件数量:1 热度:13 最近下载:2025-09-19 23:56:04
    {"JoJo Kiss.mp4": 307154116, "Kalina Ryu.mp4": 290603418, "Keisha Grey.mp4": 456089702, "Jessica Ryan.mp4": 390591152, "783aec1e2777b3281af70d990fbd0057e9773865.jpg": 121865, "JoJo Kiss.mp4_thumbs_[2016.11.13_14.52.00].jpg": 462228, "Kalina Ryu.mp4_thumbs_ ...
创建时间: 2022-05-29 10:56:20 大小:1.35 GB 文件数量:9 热度:3 最近下载:2025-01-04 15:50:05
    {"01.jpg": 376957, "02.jpg": 302076, "03.jpg": 71494, "04.jpg": 527186, "05.jpg": 550985, "06.jpg": 447030, "07.jpg": 539282, "08.jpg": 513860, "09.jpg": 490439, "10.jpg": 422999, "11.jpg": 575733, "12.jpg": 476411, "13.jpg": 527702, "14.jpg": 546276, "15. ...
创建时间: 2022-05-30 08:40:27 大小:9.12 MB 文件数量:21 热度:7 最近下载:2025-03-27 19:44:09